Wetbulb
45.58 45.65 45.61 45.38 45.35 45.33 45.53 45.56 45.63 45.79 45.95 46.21 46.12 46.35 46.58 46.88 47.23 45.37 42.20 44.18 39.18 34.02 37.11 38.48 39.69 37.30 37.56 36.74 32.27 34.90 34.20 33.58 32.99 27.39 26.20 27.25 24.80 31.96 33.64 35.96 34.28 32.83 29.32 25.61 29.79 26.73 27.28 44.68 44.67 39.29 41.83 46.01 47.11 46.95
45.26 44.84 44.48 44.53 44.67 44.88 44.98 45.19 45.35 45.46 45.44 45.65 45.58 45.79 46.26 46.52 46.86 46.65 40.37 44.13 43.20 37.28 37.56 41.83 42.54 44.35 43.32 42.82 39.33 38.68 35.11 34.65 35.84 31.29 29.23 31.24 28.12 29.76 32.93 28.80 38.65 33.18 35.49 32.48 33.10 33.08 42.50 46.30 46.96 47.53 47.99 47.18 47.63 47.34
44.74 44.92 45.20 45.32 45.57 45.64 46.00 46.21 46.05 45.85 45.98 45.63 45.42 45.82 46.21 46.38 46.54 45.95 42.36 42.90 41.26 37.07 35.68 36.64 38.16 43.23 46.82 45.09 46.88 38.33 37.18 39.73 39.51 40.44 36.64 34.25 28.60 34.59 28.01 30.55 33.91 39.62 42.61 36.68 37.46 41.77 43.45 45.70 48.62 49.32 48.11 47.81 48.86 48.32
44.88 45.60 45.67 45.71 45.74 45.80 46.01 45.92 45.61 45.63 45.73 46.30 45.66 45.82 46.09 45.98 46.10 45.86 41.96 42.98 40.47 37.38 31.21 35.51 43.95 42.81 47.20 46.73 45.72 46.23 43.99 43.51 41.71 40.79 35.47 33.09 28.99 38.90 33.04 35.96 34.68 38.26 41.76 38.46 37.84 42.38 44.97 45.91 47.04 47.43 48.41 49.50 49.12 49.20
45.52 45.77 45.67 45.74 45.67 45.17 45.46 45.41 45.25 45.22 45.29 46.53 46.15 46.03 45.84 46.42 46.00 45.11 43.59 43.66 42.64 36.84 31.85 33.64 40.85 44.84 45.52 44.83 44.15 45.63 45.46 42.00 38.35 34.47 32.81 34.74 37.68 37.29 37.29 37.26 35.22 39.20 38.63 36.61 36.09 43.88 43.84 44.56 47.38 48.44 47.55 47.22 48.67 49.72
45.57 45.81 45.62 45.37 45.56 44.45 45.33 45.54 45.01 45.02 45.30 45.48 45.89 46.21 46.39 46.42 46.07 42.78 36.89 42.83 44.26 42.21 36.90 30.94 40.86 42.29 43.99 44.20 43.90 43.72 44.31 42.70 39.78 36.13 34.48 38.14 42.71 40.07 33.26 30.75 38.95 41.47 42.24 43.80 42.40 45.72 46.18 47.39 47.13 48.23 47.55 47.25 47.83 48.59
45.59 45.60 45.60 45.63 44.74 44.38 44.86 44.89 44.64 44.88 45.64 45.73 46.14 46.19 46.19 46.21 44.44 37.49 35.95 40.57 44.67 44.18 35.15 32.51 33.37 41.08 44.39 43.42 42.37 40.80 40.86 40.95 38.30 35.65 33.31 35.60 37.48 40.50 33.82 30.93 39.63 42.29 43.32 44.85 46.24 47.36 44.38 45.87 44.81 46.03 46.17 45.01 44.50 43.76
45.36 45.72 45.44 45.47 45.34 43.49 43.65 44.03 45.02 45.36 45.42 45.91 45.87 45.97 45.94 45.96 44.18 40.06 43.48 45.28 45.16 41.06 37.15 30.56 32.42 34.68 39.99 36.31 34.42 38.71 35.16 35.91 35.76 34.74 34.18 33.79 35.97 36.31 30.50 37.89 40.92 43.18 44.26 44.02 46.71 47.18 46.31 44.64 44.81 43.70 43.42 42.21 37.88 34.87
45.07 45.08 44.97 45.35 45.69 45.51 44.93 45.10 45.47 45.63 45.89 45.93 45.92 45.73 43.83 42.02 39.44 42.31 46.21 46.17 46.62 39.45 30.56 26.03 25.62 28.70 35.23 35.01 35.97 35.26 35.07 29.42 34.41 29.50 31.42 35.31 32.41 30.10 36.32 39.06 41.21 42.34 43.21 43.16 45.48 44.80 44.24 43.20 42.31 41.32 39.42 35.52 32.32 30.44
44.27 44.55 44.56 44.73 45.10 45.20 45.62 45.73 45.62 45.87 45.37 44.54 42.56 37.37 31.91 41.03 46.03 45.21 40.90 35.15 36.97 38.12 32.32 23.59 30.24 29.89 34.00 32.07 33.34 33.46 30.61 26.38 27.21 33.18 36.58 28.74 30.17 37.27 41.91 41.80 40.31 39.68 41.23 43.86 41.63 39.93 40.09 36.99 34.99 33.15 31.52 31.00 29.25 27.66
44.69 44.77 44.83 44.76 44.91 44.83 44.88 44.79 44.88 45.08 45.32 39.70 37.09 33.16 42.41 46.28 41.39 36.02 31.29 30.88 32.01 30.01 30.74 31.56 31.24 30.66 35.46 28.89 30.34 28.50 30.72 26.68 26.90 28.43 31.15 31.64 31.23 36.94 40.28 39.13 37.98 36.63 36.52 36.30 37.65 37.23 37.25 34.76 31.27 28.60 27.19 27.17 26.52 25.43
44.78 44.70 44.85 44.97 44.96 44.77 44.62 45.02 45.01 42.08 39.88 40.62 40.51 41.96 40.86 37.80 33.58 29.35 27.41 29.62 27.52 25.85 29.68 30.53 30.58 31.83 31.16 33.37 27.96 30.72 28.62 31.26 25.65 32.23 27.33 29.91 32.87 34.66 34.36 34.47 34.95 34.69 34.39 33.85 33.29 31.88 31.05 29.98 28.82 27.53 26.50 25.40 24.96 24.77
43.91 44.10 44.39 44.32 44.40 45.08 45.16 44.42 44.53 44.28 44.17 42.46 37.71 33.62 32.83 29.02 22.64 17.27 20.27 25.77 21.99 30.30 29.99 32.03 31.82 32.71 33.97 34.79 30.17 30.84 27.83 28.09 33.26 26.89 25.24 29.07 31.29 32.27 31.66 31.39 30.99 31.69 30.80 29.55 28.98 28.60 27.84 27.06 27.30 26.31 24.87 25.16 24.98 23.73
43.72 43.56 43.84 44.07 44.41 44.32 44.80 45.08 45.08 44.49 40.27 33.78 26.35 25.74 25.51 25.18 27.06 26.65 29.87 30.87 30.96 32.01 28.97 31.63 32.36 31.96 32.22 30.69 31.41 27.58 28.33 32.18 27.99 26.79 26.29 27.92 28.15 28.11 29.34 29.52 28.16 26.99 27.79 26.99 26.36 25.97 25.55 25.04 24.33 24.45 24.13 24.31 23.31 22.30
43.70 43.22 43.11 43.36 44.09 44.34 44.45 44.69 43.79 39.84 33.73 26.90 27.36 21.82 23.77 27.37 26.88 26.50 28.11 29.70 28.58 30.89 32.93 32.33 32.53 32.83 30.35 29.59 30.48 29.92 28.70 26.58 24.84 23.51 24.08 26.41 27.24 26.89 26.38 26.53 25.90 25.50 25.12 24.78 24.74 23.69 23.40 23.24 22.89 22.72 23.68 23.80 23.14 22.26
43.86 42.50 41.04 42.99 43.91 44.51 44.17 43.20 39.99 37.75 31.92 26.42 23.70 22.63 24.71 22.32 21.87 23.74 23.97 25.21 28.59 28.29 31.61 33.08 31.08 29.24 29.00 29.21 26.18 20.80 22.19 18.31 19.62 20.36 24.62 26.04 25.73 25.64 25.59 25.71 25.23 25.10 24.52 23.92 23.90 23.61 23.47 22.75 22.13 22.40 23.04 22.67 22.05 21.24
42.35 37.53 42.25 43.00 43.60 43.64 42.91 38.05 33.75 28.57 25.71 21.47 19.97 24.73 23.02 20.29 18.18 23.36 24.08 25.21 29.02 27.83 30.37 31.08 24.44 22.44 27.97 23.15 18.17 21.52 16.22 19.54 22.88 23.78 25.53 25.51 24.78 24.51 24.78 24.47 24.24 24.02 23.45 23.40 23.45 23.30 23.22 23.92 23.73 22.21 20.51 21.72 22.10 21.79
38.93 37.98 42.54 43.04 42.65 39.00 36.19 34.22 28.64 26.06 22.24 23.47 18.77 18.14 22.90 22.30 20.77 22.20 23.47 26.55 27.65 28.61 27.71 23.87 26.60 21.21 18.82 17.99 15.90 21.48 22.97 24.78 25.69 25.45 25.81 26.20 26.16 25.98 25.77 24.68 25.09 24.80 24.36 24.37 24.40 24.25 23.90 22.72 21.20 20.38 20.86 20.86 19.95 19.54
39.60 39.91 42.00 42.34 40.28 34.08 29.74 29.77 28.98 21.87 22.58 21.68 24.08 25.69 22.85 22.84 23.15 23.27 23.60 26.13 28.14 27.87 26.28 23.00 17.54 16.33 16.95 23.34 22.44 23.41 23.94 24.11 22.32 22.69 23.58 25.11 25.98 25.40 25.01 25.07 24.50 23.97 23.92 23.73 23.34 22.22 22.66 23.18 21.93 21.14 20.37 19.48 17.13 17.18
41.87 41.66 41.59 41.80 40.40 30.44 27.07 29.15 30.78 25.35 22.11 23.00 23.69 20.59 20.73 19.73 20.15 20.29 21.88 22.56 24.13 23.11 18.98 16.67 16.05 18.10 19.59 24.10 25.40 24.69 24.76 25.01 23.48 20.95 21.02 22.51 23.73 23.23 22.61 22.38 21.65 22.00 21.27 21.24 20.77 20.16 19.06 18.02 18.18 18.57 18.52 16.73 14.10 12.65
40.14 39.44 40.52 38.23 34.16 33.62 32.17 29.29 28.40 28.63 28.74 25.47 25.25 25.52 20.28 21.06 17.85 17.33 17.94 22.10 18.55 17.31 15.98 18.23 18.81 22.28 26.07 26.61 27.04 26.48 25.63 25.40 23.00 21.93 20.16 18.94 21.41 21.38 20.91 21.16 21.38 20.38 18.50 17.49 16.25 15.44 15.19 14.70 15.64 15.24 13.92 12.89 12.16 11.63
37.40 39.70 34.30 36.26 32.68 31.88 31.41 32.12 29.89 31.41 26.60 26.32 25.91 25.19 19.44 16.24 14.63 15.69 19.84 16.06 16.35 17.69 19.15 18.56 19.24 20.82 20.76 22.29 23.63 24.38 24.08 23.69 23.06 22.22 21.93 21.17 18.23 17.83 17.51 18.08 17.36 15.74 16.40 16.56 15.69 13.86 13.53 13.74 13.49 12.73 11.30 10.19 9.41 7.69
37.77 36.53 32.05 31.69 28.99 28.36 28.74 33.28 27.72 29.14 23.41 24.60 25.03 20.63 17.83 17.45 19.17 21.79 13.46 16.53 17.13 21.12 21.05 20.45 20.16 21.20 20.18 20.86 21.11 21.14 21.82 20.88 18.90 18.78 18.58 18.04 18.14 17.96 17.08 16.81 16.64 14.69 13.53 14.14 15.23 13.82 12.38 12.14 10.93 9.70 8.77 7.69 5.47 2.97
31.47 24.31 24.37 23.17 25.20 23.77 27.16 25.25 29.59 27.34 25.83 23.64 21.62 18.05 19.86 18.28 20.10 13.54 10.13 12.24 14.74 18.49 18.39 18.13 19.18 17.90 18.46 18.35 16.90 17.78 19.14 19.57 18.03 17.83 18.22 16.70 14.97 15.31 15.96 15.24 15.11 14.86 14.22 13.41 11.77 10.27 9.57 7.79 7.04 6.55 4.76 2.61 0.78 -0.33
15.78 13.90 15.94 12.18 18.98 20.20 19.26 18.57 18.41 20.43 16.33 18.57 16.18 15.76 20.65 21.92 13.82 11.27 9.27 10.66 12.63 14.15 14.86 14.59 13.53 14.64 13.91 13.86 14.11 14.71 18.09 18.31 15.75 14.36 16.53 16.84 15.28 14.35 13.75 14.07 13.56 13.33 13.10 8.83 6.54 4.71 2.86 3.26 3.28 1.74 1.00 0.08 0.20 -4.00
8.83 13.22 10.49 11.77 11.94 14.30 15.13 8.52 11.00 10.58 10.70 12.86 13.91 17.92 14.07 7.79 4.43 4.35 8.58 10.34 10.90 12.34 12.67 12.79 12.01 10.94 9.83 11.43 11.08 11.39 13.03 16.44 14.90 10.92 12.73 16.17 14.93 12.92 11.04 9.76 9.06 9.37 11.62 8.09 5.72 2.83 2.08 1.44 1.21 -0.46 -2.55 -2.95 -4.01 -5.70
3.73 5.01 14.90 18.17 16.34 16.51 9.52 8.96 11.68 5.76 1.89 3.56 7.46 4.17 3.39 -1.91 0.33 7.68 12.24 12.73 12.21 13.33 14.44 14.70 13.68 11.79 10.71 10.58 11.78 12.19 12.15 12.23 11.40 10.60 11.74 11.15 11.06 11.39 10.14 7.38 5.51 7.39 9.14 6.93 5.08 4.12 2.99 -1.68 -3.65 -4.65 -9.07 -15.05 -13.06 -9.12
9.80 10.32 1.42 3.95 5.08 9.80 -0.50 1.31 2.91 3.17 4.37 10.33 7.61 -1.69 -5.26 -3.27 1.23 9.55 11.33 13.80 13.97 15.01 14.80 14.84 15.02 13.83 12.80 12.36 12.60 12.06 11.20 11.55 11.35 11.14 10.57 10.07 9.98 8.57 7.79 7.68 8.41 9.02 3.97 2.57 1.84 0.77 1.11 -1.20 -4.11 -7.20 -5.89 -9.79 -13.78 -18.49
6.54 8.83 6.49 -2.77 -0.94 1.43 5.81 1.62 1.09 6.71 10.20 9.13 -3.99 -2.36 0.89 9.12 10.26 11.05 12.84 13.71 16.21 14.52 12.06 11.02 11.16 11.83 10.35 10.14 10.00 10.37 11.05 11.90 7.84 3.91 2.26 1.68 2.33 4.31 5.26 4.38 3.32 0.94 1.10 2.64 6.72 1.72 -0.14 -3.22 -6.40 -7.98 -11.43 -10.73 -15.23 -19.22
4.65 7.39 0.20 -5.63 -4.22 -0.54 3.68 4.09 3.18 -0.97 6.44 5.02 9.07 8.88 8.17 8.56 11.56 15.19 14.61 13.69 11.59 10.86 11.94 11.34 10.67 9.34 7.30 6.87 6.00 6.66 8.06 8.47 8.43 4.95 1.42 0.07 0.52 0.34 -0.11 2.53 1.01 -1.87 -5.54 -4.45 -7.47 -6.18 2.90 -5.83 -5.10 -12.98 -11.68 -12.00 -13.78 -15.59
9.47 3.58 -0.20 -0.66 0.87 3.11 2.54 -3.81 3.36 5.72 -0.09 -1.91 -4.68 -2.06 -2.04 4.24 8.27 12.02 11.64 13.18 12.08 10.98 9.12 7.57 7.39 8.14 7.05 6.80 5.02 4.12 2.85 4.99 5.53 5.46 5.26 3.43 1.00 -0.25 -1.08 -2.61 -5.13 -4.47 -7.24 -9.33 -13.50 -15.06 -15.23 -13.78 -15.95 -16.86 -17.09 -17.06 -19.04 -19.94
0.51 -5.16 -2.99 -5.26 -0.55 2.57 5.48 7.79 -1.85 -0.93 -3.81 -2.38 0.92 -6.53 -1.15 -3.02 -3.26 3.98 10.67 9.01 9.19 7.72 8.13 7.93 6.28 5.88 7.48 6.38 4.72 3.78 3.64 1.80 1.28 1.41 1.50 -0.15 -3.27 -5.62 -5.63 -6.23 -11.67 -10.79 -13.60 -14.68 -15.78 -15.97 -15.46 -15.95 -17.77 -18.85 -17.95 -16.86 -18.49 -19.76
0.54 -1.28 -5.99 -3.81 -1.99 -0.36 1.34 6.26 0.67 2.83 1.36 -5.62 -3.09 -2.73 -3.81 -4.97 -4.92 1.81 8.98 11.55 7.49 6.15 6.01 6.58 6.43 6.04 4.59 3.40 1.61 0.60 -0.15 -1.28 0.08 2.53 -1.47 -2.18 -4.58 -5.26 -12.58 -16.14 -14.35 -14.15 -9.71 -12.69 -16.50 -17.26 -15.61 -14.90 -17.40 -18.13 -20.85 -20.85 -21.21 -22.30
MSLP
997.04 996.58 996.21 995.91 995.69 995.57 995.57 995.71 996.00 996.41 996.93 997.61 998.38 999.28 1000.19 1001.11 1002.14 1003.31 1004.01 1004.89 1005.62 1006.20 1005.93 1005.12 1004.97 1004.80 1005.46 1006.03 1006.55 1006.70 1006.96 1006.75 1007.50 1008.20 1008.59 1008.47 1007.56 1006.77 1006.47 1005.89 1005.55 1006.31 1006.39 1006.74 1006.40 1005.65 1004.00 1000.72 999.67 999.28 999.40 998.43 998.06 997.84
995.54 994.99 994.50 994.06 993.69 993.38 993.24 993.28 993.60 994.11 994.73 995.56 996.55 997.60 998.65 999.73 1000.91 1002.33 1003.34 1004.16 1005.47 1006.03 1005.56 1005.14 1004.16 1003.55 1003.29 1004.19 1005.23 1005.77 1005.79 1005.79 1006.16 1006.79 1007.57 1007.40 1007.09 1005.80 1005.34 1005.27 1005.04 1005.17 1004.72 1004.52 1004.17 1002.70 1000.91 1000.00 999.53 999.15 999.22 998.90 998.15 998.01
994.05 993.31 992.50 991.78 991.09 990.61 990.38 990.40 990.60 991.34 992.17 993.18 994.44 995.82 997.12 998.40 999.77 1001.03 1002.45 1003.39 1004.88 1005.53 1005.35 1005.47 1004.17 1002.85 1003.22 1003.54 1004.03 1005.08 1005.28 1005.30 1005.64 1005.46 1006.34 1006.71 1006.58 1005.98 1005.58 1004.75 1003.89 1002.84 1002.61 1002.80 1002.61 1001.12 1000.12 999.40 999.15 998.87 998.72 998.63 998.19 997.95
992.49 991.49 990.52 989.67 988.93 988.33 987.91 987.89 988.41 989.15 989.95 990.84 992.18 994.01 995.61 997.21 998.72 1000.40 1001.22 1002.36 1003.69 1005.01 1005.21 1003.55 1003.39 1002.30 1002.45 1003.14 1003.73 1004.26 1004.90 1005.09 1005.15 1005.60 1006.02 1006.48 1006.29 1004.84 1004.25 1003.36 1003.07 1002.16 1001.84 1001.67 1001.25 1000.25 999.40 998.73 998.42 998.10 997.92 997.67 998.10 998.13
991.03 990.03 989.08 988.22 987.33 986.57 985.87 985.53 986.08 987.20 988.27 988.82 990.42 992.60 994.44 996.16 998.02 1000.07 1001.32 1002.17 1002.62 1003.35 1003.37 1003.06 1002.39 1001.97 1001.84 1002.50 1003.03 1003.74 1004.56 1005.06 1005.22 1005.94 1006.17 1006.25 1005.71 1004.97 1004.11 1003.35 1002.19 1001.51 1001.00 1001.09 1000.14 999.02 998.97 998.19 997.91 997.58 997.71 997.93 998.00 998.20
990.13 989.15 988.34 987.52 986.45 985.40 983.27 981.58 983.10 985.73 987.51 988.67 990.17 991.96 993.68 995.28 997.59 999.59 1001.07 1002.28 1002.16 1002.30 1002.38 1002.29 1001.10 1001.40 1001.84 1002.23 1003.00 1004.16 1004.48 1004.67 1004.92 1005.49 1005.69 1005.41 1004.90 1004.96 1004.80 1002.94 1001.39 1000.63 1000.06 999.67 999.31 998.47 998.38 998.30 998.57 998.24 998.35 998.54 998.59 998.63
989.72 989.00 988.29 987.28 986.47 985.53 984.12 983.43 984.57 986.35 987.90 989.26 990.60 992.02 993.55 995.00 997.11 998.27 998.62 999.07 1000.99 1002.80 1003.27 1001.90 1001.47 1001.25 1001.32 1002.22 1003.14 1004.47 1004.03 1004.24 1004.81 1005.38 1005.60 1005.41 1005.13 1004.67 1004.66 1003.80 1001.27 1000.56 1000.14 999.45 998.92 998.88 999.19 999.06 999.43 999.54 999.61 1000.07 1000.05 1000.38
989.93 989.27 988.59 987.75 987.01 986.84 986.51 986.56 987.01 987.81 988.90 990.08 991.30 992.66 994.11 995.81 997.88 998.49 998.03 998.68 1000.67 1002.30 1002.90 1001.72 1001.82 1002.34 1002.69 1002.99 1003.53 1003.72 1004.29 1004.48 1004.89 1005.13 1005.26 1005.21 1004.97 1004.55 1003.77 1002.28 1001.44 1000.40 999.79 1000.04 999.48 998.72 998.73 999.72 1000.46 1000.92 1001.25 1001.49 1002.08 1003.28
990.62 990.11 989.45 988.74 988.17 987.79 987.80 987.93 988.40 989.07 990.00 991.07 992.33 993.60 995.02 996.67 997.62 998.24 998.77 999.88 1000.41 1002.01 1002.27 1001.90 1001.83 1002.52 1002.72 1003.08 1003.24 1003.88 1004.05 1005.19 1005.02 1005.23 1004.97 1004.66 1004.39 1003.45 1002.03 1002.12 1001.70 1000.61 999.94 999.69 999.80 999.82 1000.15 1000.96 1001.84 1002.51 1003.00 1003.79 1004.54 1005.98
991.78 991.30 990.63 990.17 989.87 989.66 989.54 989.59 990.07 990.59 991.58 992.63 993.61 995.07 996.53 996.90 997.39 998.48 999.69 1000.77 1000.94 1001.29 1001.58 1001.83 1002.03 1002.63 1002.91 1003.61 1004.19 1004.56 1004.68 1005.25 1005.40 1004.72 1004.12 1004.05 1002.79 1001.52 1001.57 1002.06 1002.09 1002.09 1000.56 999.82 1000.78 1001.58 1001.88 1002.75 1003.65 1004.55 1005.67 1006.41 1007.13 1008.29
993.02 992.62 992.26 991.98 991.87 991.88 991.98 992.00 992.21 992.56 992.80 993.51 994.77 995.82 996.42 996.85 997.92 999.44 1000.19 1000.55 1001.16 1001.43 1001.11 1001.51 1001.85 1002.56 1003.49 1003.86 1004.44 1004.73 1005.05 1005.00 1004.88 1003.76 1003.82 1003.56 1002.98 1002.21 1001.60 1002.12 1003.37 1004.01 1002.53 1001.76 1001.34 1002.19 1002.95 1004.16 1005.50 1006.54 1007.87 1008.72 1009.39 1010.20
994.23 993.88 993.54 993.31 993.23 993.01 992.85 992.89 992.98 993.43 993.72 994.23 995.00 996.18 996.75 997.63 998.65 999.58 1000.56 1000.91 1000.80 1001.13 1001.38 1001.42 1001.95 1002.52 1003.32 1003.34 1004.05 1005.00 1004.86 1004.61 1003.68 1002.93 1003.26 1003.05 1003.41 1003.30 1003.19 1003.96 1005.59 1004.86 1004.07 1003.96 1003.85 1004.28 1005.56 1006.45 1007.63 1008.35 1009.27 1010.31 1011.17 1011.90
995.39 995.19 994.94 994.62 994.32 994.12 994.07 993.98 993.66 994.37 994.48 994.92 995.67 997.22 997.96 998.87 999.69 1000.46 1001.11 1001.44 1001.26 1001.06 1001.07 1001.27 1002.05 1002.59 1003.12 1003.34 1004.00 1004.37 1004.43 1003.53 1002.91 1003.14 1003.06 1003.46 1003.75 1004.34 1004.91 1005.68 1005.90 1006.24 1005.60 1006.54 1006.47 1006.74 1007.58 1008.54 1009.49 1009.93 1010.70 1011.84 1012.51 1013.30
996.61 996.28 996.28 995.94 995.55 995.06 995.43 995.30 994.78 995.02 995.47 996.70 997.81 999.35 1000.10 1000.93 1001.56 1001.89 1001.67 1001.61 1001.83 1001.51 1001.31 1001.41 1001.98 1002.37 1002.97 1003.49 1003.77 1004.07 1003.31 1002.77 1002.91 1003.42 1003.89 1004.67 1005.28 1005.98 1006.46 1006.10 1006.95 1007.27 1007.28 1007.40 1008.48 1008.73 1009.48 1009.91 1011.07 1011.95 1012.47 1013.03 1013.84 1014.70
996.85 996.85 996.59 996.89 996.77 996.19 995.38 994.98 995.05 995.47 997.29 998.92 999.84 1001.64 1002.49 1003.05 1003.22 1003.19 1002.75 1002.56 1002.76 1002.20 1001.69 1001.85 1002.23 1002.53 1003.14 1003.56 1003.47 1003.51 1002.84 1002.21 1003.49 1004.14 1005.25 1005.89 1006.53 1007.11 1006.99 1007.45 1008.38 1008.88 1009.23 1009.93 1010.28 1010.34 1010.93 1011.72 1012.42 1013.27 1014.17 1014.71 1015.18 1015.97
997.01 997.09 997.49 997.17 996.52 996.17 995.89 995.98 996.35 997.09 999.32 1001.21 1003.08 1003.78 1004.11 1004.21 1004.46 1004.23 1004.09 1003.88 1003.61 1003.13 1002.40 1002.20 1002.45 1002.76 1002.89 1003.03 1003.15 1004.08 1004.32 1004.86 1005.57 1006.12 1006.67 1007.29 1007.83 1007.70 1007.87 1008.61 1009.34 1009.77 1010.23 1010.77 1011.36 1011.83 1012.43 1013.33 1013.82 1014.42 1015.43 1016.16 1016.85 1017.39
997.61 998.59 998.34 997.37 996.63 996.19 996.07 996.60 997.92 999.99 1001.94 1003.93 1005.70 1005.74 1005.71 1006.00 1006.30 1005.99 1005.60 1005.04 1004.32 1003.66 1003.08 1003.04 1003.50 1003.86 1003.72 1004.07 1005.25 1005.98 1006.48 1006.86 1007.18 1007.66 1007.98 1008.34 1008.59 1009.03 1009.51 1010.02 1010.50 1010.87 1011.51 1012.27 1012.80 1013.39 1014.06 1014.76 1015.13 1015.68 1016.63 1017.92 1018.40 1019.08
999.04 999.02 998.20 997.46 996.85 996.92 997.46 998.40 1000.33 1002.53 1004.73 1005.93 1006.65 1007.32 1007.27 1007.53 1007.55 1007.11 1006.63 1005.74 1004.94 1004.40 1004.53 1005.20 1005.41 1005.70 1005.99 1006.16 1006.79 1007.68 1008.12 1008.31 1008.65 1009.02 1009.29 1009.73 1010.13 1010.65 1011.01 1011.30 1011.78 1012.13 1012.87 1013.71 1014.25 1014.87 1015.47 1015.90 1016.49 1017.56 1018.35 1019.17 1019.69 1020.55
999.37 998.94 998.40 997.81 997.61 998.35 999.87 1001.29 1002.06 1004.58 1006.22 1006.74 1007.34 1007.68 1008.14 1008.65 1008.84 1008.40 1007.60 1006.65 1006.05 1005.65 1005.97 1007.10 1007.98 1008.41 1008.44 1008.02 1008.16 1008.55 1008.92 1009.35 1009.84 1010.53 1010.94 1011.39 1011.66 1011.85 1012.27 1012.59 1013.02 1013.65 1014.36 1015.13 1015.77 1016.31 1016.80 1017.36 1018.10 1018.92 1019.66 1020.37 1021.09 1022.14
999.16 998.97 998.69 998.42 998.07 999.57 1001.48 1002.81 1003.05 1004.80 1006.51 1007.90 1008.55 1009.11 1009.55 1009.98 1009.71 1009.13 1008.44 1007.83 1007.28 1007.45 1008.74 1009.95 1010.64 1010.53 1009.95 1009.42 1009.53 1009.79 1010.19 1010.57 1010.74 1011.31 1012.31 1012.96 1013.31 1013.48 1013.91 1014.24 1014.93 1015.66 1016.26 1016.92 1017.46 1017.92 1018.57 1019.37 1020.20 1020.74 1021.31 1022.03 1022.74 1023.70
999.85 999.83 999.34 999.08 999.86 1000.95 1002.64 1003.58 1004.44 1005.48 1006.55 1007.46 1008.49 1008.87 1010.09 1010.27 1010.11 1009.96 1009.53 1009.28 1009.20 1010.93 1012.00 1012.51 1012.14 1011.40 1010.77 1010.62 1010.84 1011.13 1011.55 1011.90 1012.52 1012.98 1013.64 1014.29 1015.04 1015.25 1015.73 1016.28 1016.77 1017.36 1017.82 1018.48 1018.98 1019.94 1020.58 1021.40 1022.12 1022.68 1023.15 1023.90 1024.61 1025.25
1000.80 1000.58 1000.47 1000.57 1001.56 1002.48 1003.61 1004.34 1004.83 1005.51 1006.38 1007.44 1008.11 1009.02 1010.09 1010.86 1011.46 1011.78 1011.97 1011.73 1012.94 1014.05 1014.19 1014.08 1013.72 1013.14 1012.78 1012.81 1012.91 1013.08 1013.41 1013.67 1014.28 1014.78 1015.30 1015.71 1016.32 1016.94 1017.56 1018.04 1018.29 1018.95 1019.64 1020.31 1020.91 1021.58 1022.40 1023.07 1023.58 1024.11 1024.68 1025.54 1026.16 1026.87
1000.96 1000.97 1001.55 1002.02 1002.71 1003.70 1005.07 1004.80 1005.25 1005.99 1006.70 1007.67 1008.52 1009.53 1010.71 1011.76 1012.75 1013.11 1014.51 1015.64 1016.03 1015.97 1015.85 1015.55 1015.38 1015.00 1014.77 1015.01 1014.92 1015.16 1015.30 1015.43 1016.05 1016.64 1017.13 1017.57 1018.08 1018.62 1019.11 1019.73 1020.21 1020.57 1021.22 1022.11 1022.51 1023.00 1023.69 1024.37 1024.94 1025.56 1026.28 1026.95 1027.59 1028.37
1002.14 1003.66 1004.30 1004.83 1005.13 1005.85 1005.75 1006.26 1006.64 1007.34 1008.00 1008.73 1009.60 1010.61 1011.29 1012.65 1013.82 1015.26 1016.99 1017.99 1018.33 1017.73 1017.38 1017.23 1016.90 1016.72 1016.65 1016.76 1017.11 1017.38 1017.51 1017.48 1017.84 1018.44 1018.92 1019.12 1019.59 1020.38 1020.82 1021.32 1021.80 1022.22 1022.73 1023.31 1023.92 1024.56 1025.22 1025.86 1026.35 1026.90 1027.48 1028.07 1028.71 1029.37
1005.01 1008.25 1008.43 1008.63 1008.39 1008.11 1008.42 1009.07 1009.61 1009.74 1010.88 1011.10 1011.62 1012.04 1012.41 1013.36 1015.14 1017.06 1018.56 1019.71 1019.67 1019.37 1019.26 1019.09 1018.90 1018.72 1018.77 1019.07 1019.30 1019.38 1019.33 1019.27 1019.46 1019.81 1020.63 1020.87 1021.12 1021.65 1022.28 1022.85 1023.38 1023.88 1024.21 1024.71 1025.52 1026.01 1026.64 1026.90 1027.35 1027.95 1028.47 1028.97 1029.58 1030.30
1009.38 1011.41 1011.55 1011.85 1011.85 1011.55 1011.98 1012.60 1012.81 1013.16 1013.22 1013.36 1013.93 1014.12 1014.26 1015.67 1017.64 1019.28 1020.39 1021.04 1021.11 1020.99 1020.74 1020.55 1020.45 1020.45 1020.68 1020.89 1020.95 1021.05 1021.30 1021.18 1021.12 1021.46 1022.35 1022.52 1022.79 1023.10 1023.68 1024.26 1024.88 1025.55 1025.59 1025.79 1026.18 1026.83 1027.44 1027.91 1028.38 1028.91 1029.53 1030.04 1030.68 1031.34
1012.94 1013.85 1014.04 1014.35 1014.16 1014.00 1014.91 1015.47 1015.80 1016.16 1016.48 1016.77 1016.74 1016.80 1017.28 1018.96 1020.29 1021.33 1021.84 1022.16 1022.06 1022.02 1021.82 1021.67 1021.61 1021.77 1022.12 1022.38 1022.57 1022.77 1022.88 1022.93 1023.18 1023.78 1024.18 1024.32 1024.64 1024.87 1025.11 1025.59 1026.09 1026.48 1026.33 1026.48 1026.89 1027.37 1027.85 1028.52 1029.22 1029.90 1030.68 1031.22 1031.60 1031.77
1014.82 1015.74 1016.48 1017.17 1016.96 1017.20 1017.67 1018.26 1018.79 1019.16 1019.17 1019.09 1018.96 1020.04 1020.68 1021.19 1022.20 1022.51 1022.61 1022.85 1022.80 1022.75 1022.67 1022.71 1022.81 1023.03 1023.26 1023.68 1023.88 1024.03 1024.35 1024.59 1024.84 1025.08 1025.37 1025.83 1026.29 1026.51 1026.65 1026.81 1027.03 1027.10 1027.26 1027.42 1027.66 1027.88 1028.39 1029.07 1029.86 1030.65 1031.23 1031.70 1032.34 1032.16
1016.66 1017.49 1018.15 1019.55 1019.40 1019.91 1020.43 1021.05 1021.44 1021.34 1021.23 1020.76 1021.46 1022.09 1022.62 1023.06 1023.09 1023.05 1023.25 1023.22 1023.32 1023.43 1023.63 1023.94 1024.31 1024.57 1024.81 1025.00 1025.19 1025.38 1025.40 1025.38 1025.59 1026.03 1026.57 1027.29 1027.65 1028.08 1027.93 1027.97 1028.11 1028.28 1028.46 1028.58 1028.44 1028.65 1028.90 1029.16 1029.85 1030.81 1031.36 1031.92 1032.23 1032.51
1018.32 1018.49 1019.94 1021.17 1022.12 1022.91 1022.86 1022.57 1022.71 1022.55 1022.11 1022.14 1022.61 1023.44 1023.93 1024.36 1024.30 1023.85 1023.80 1023.90 1024.13 1024.45 1024.71 1024.98 1025.25 1025.42 1025.81 1025.99 1026.31 1026.38 1026.40 1026.32 1026.37 1026.83 1027.47 1028.17 1028.57 1028.79 1028.74 1028.90 1029.15 1029.42 1029.63 1029.68 1029.61 1029.40 1029.37 1029.97 1030.23 1031.17 1032.07 1032.48 1032.98 1033.47
1018.69 1019.91 1021.51 1022.70 1023.71 1023.89 1023.54 1023.56 1023.24 1023.32 1023.82 1024.11 1024.82 1025.23 1025.59 1025.57 1025.36 1025.38 1025.30 1025.24 1025.34 1025.53 1025.76 1026.08 1026.33 1026.54 1026.70 1026.95 1027.16 1027.36 1027.80 1028.04 1027.88 1027.88 1028.17 1028.69 1029.05 1029.32 1029.51 1029.69 1030.05 1030.03 1030.50 1030.61 1030.58 1030.65 1030.97 1031.54 1032.23 1032.56 1033.06 1033.44 1033.83 1034.06
1020.46 1021.70 1022.75 1024.10 1024.37 1024.01 1023.76 1024.04 1024.60 1025.15 1025.58 1025.94 1026.26 1026.13 1026.51 1026.78 1027.06 1026.76 1026.46 1026.25 1026.33 1026.61 1026.89 1027.07 1027.27 1027.61 1027.72 1027.91 1028.08 1028.30 1028.64 1029.01 1029.19 1029.38 1029.52 1029.73 1029.90 1030.26 1030.26 1030.30 1030.67 1030.72 1031.21 1031.21 1031.28 1031.44 1031.76 1032.76 1033.03 1033.28 1033.62 1033.97 1034.19 1034.27
1021.80 1022.15 1022.90 1024.06 1024.42 1024.53 1024.26 1024.29 1024.89 1025.59 1025.92 1026.95 1026.94 1026.97 1027.42 1027.60 1027.90 1027.69 1027.17 1027.01 1027.25 1027.50 1027.74 1027.93 1028.13 1028.35 1028.59 1028.82 1029.12 1029.41 1029.71 1029.98 1029.95 1029.96 1030.28 1030.37 1030.47 1030.63 1031.09 1031.28 1031.22 1031.33 1031.64 1031.77 1031.94 1032.10 1032.62 1033.27 1033.57 1033.83 1034.04 1034.24 1034.38 1034.44
Wind_Speed
28 28 28 28 28 28 29 30 30 30 30 30 29 29 29 29 29 18 7 13 6 2 3 10 20 10 6 11 11 4 2 2 3 6 6 4 4 7 5 5 10 3 4 3 2 3 8 4 7 6 6 4 2 4
26 25 27 29 30 32 33 34 34 33 33 33 32 31 31 31 31 27 7 11 9 3 3 4 17 18 16 11 7 6 5 4 5 3 1 3 5 1 5 4 10 6 8 7 10 9 10 4 5 4 2 4 2 3
27 28 30 31 33 33 33 34 33 33 35 36 35 34 32 32 32 29 8 11 8 4 4 8 10 19 8 7 7 4 2 4 3 5 5 4 5 5 4 7 3 5 6 4 3 7 9 9 5 5 6 5 4 3
28 28 29 27 26 26 26 25 26 26 26 34 37 34 34 33 33 30 7 9 10 4 3 6 12 19 12 10 6 5 2 4 3 1 4 3 3 3 5 4 6 7 6 6 4 7 6 4 9 9 9 6 5 1
26 23 21 22 19 19 23 27 28 27 23 26 33 32 31 34 34 19 8 9 11 8 7 4 6 6 15 12 4 3 3 4 2 2 2 4 3 2 3 1 10 4 6 5 7 9 5 9 8 8 6 5 4 6
18 17 15 14 14 16 20 19 26 27 23 23 26 28 30 35 35 11 5 8 12 10 4 5 3 8 8 12 10 7 8 3 3 4 3 2 3 4 4 4 6 7 6 6 5 4 5 5 2 4 6 4 6 7
14 10 10 12 11 16 21 25 28 24 24 24 25 27 27 34 16 8 6 6 21 9 1 4 2 3 11 10 5 4 2 3 4 3 2 3 1 2 3 8 13 10 7 5 5 6 2 3 2 3 8 10 15 16
14 12 13 15 15 14 17 20 22 23 23 23 25 25 28 32 15 3 3 21 20 6 3 1 3 4 3 3 4 3 3 2 1 4 1 3 1 3 6 8 11 15 17 8 5 1 6 9 7 8 7 11 17 15
21 21 19 21 20 20 16 16 20 24 27 28 27 30 15 5 4 3 14 19 4 5 4 1 5 4 1 2 3 3 3 2 1 2 3 5 3 7 5 3 10 10 15 5 6 8 9 11 11 10 13 15 18 14
24 25 26 26 26 27 29 30 31 35 35 29 11 5 4 4 35 15 5 3 3 3 1 2 1 4 4 2 2 3 2 3 3 5 3 3 6 6 5 8 13 12 8 8 10 6 8 10 11 14 15 13 15 15
23 25 23 24 25 25 27 27 26 24 9 4 4 4 4 7 5 3 3 2 4 2 1 3 3 6 1 5 3 1 2 1 3 6 8 5 4 1 5 5 9 9 10 13 13 15 15 13 13 15 15 15 15 16
23 24 22 20 20 20 20 12 8 4 2 6 7 4 3 3 3 5 3 1 2 4 2 4 4 4 1 3 4 3 3 3 7 3 4 4 3 6 10 10 5 6 14 17 17 21 18 19 15 16 16 15 15 16
21 24 24 22 21 20 19 18 24 18 4 2 5 5 3 4 8 6 3 1 2 1 3 3 4 4 2 2 4 3 5 7 2 3 3 2 5 6 8 8 11 12 18 16 19 20 21 20 17 17 18 16 17 17
15 16 19 20 19 16 11 8 6 4 4 5 5 6 5 5 5 3 3 2 2 3 2 5 4 3 2 2 2 4 6 2 5 5 4 3 6 6 5 10 10 14 14 17 14 19 19 20 18 16 15 15 16 16
10 10 15 18 10 11 13 12 12 5 5 6 5 6 5 3 3 3 3 3 5 4 1 4 3 2 2 2 4 5 5 3 0 2 2 3 6 8 10 12 11 12 13 13 13 16 19 18 18 18 16 16 17 17
7 8 10 21 15 11 8 6 5 4 5 5 9 5 4 3 6 5 7 4 4 4 2 2 3 4 5 2 2 4 4 2 1 2 3 4 6 9 12 12 12 13 14 14 15 16 18 17 18 19 17 16 15 16
11 4 15 16 14 9 11 5 5 8 6 6 5 4 3 3 2 3 4 4 4 4 2 3 4 3 4 3 3 3 2 2 3 4 5 8 10 11 12 14 14 15 16 15 16 17 18 17 17 19 19 16 17 16
4 5 14 16 10 7 5 6 6 6 8 4 5 2 6 5 6 5 6 6 4 2 3 4 4 5 4 3 2 3 4 6 6 6 7 9 12 12 12 15 14 16 16 15 16 16 16 17 17 14 16 15 16 15
4 8 15 15 6 5 5 6 5 6 5 2 3 3 3 3 6 6 6 7 5 5 4 4 5 4 3 3 4 4 4 6 9 9 11 12 12 13 14 15 16 16 15 14 13 11 11 14 12 10 10 10 11 9
10 13 17 12 7 5 6 4 4 5 3 4 4 7 4 4 5 5 7 7 7 5 6 6 4 3 2 5 7 7 6 7 10 12 10 10 10 14 14 13 11 14 13 14 13 14 12 11 10 9 9 9 10 9
7 8 10 7 5 6 4 3 4 3 5 3 4 2 4 6 11 12 9 7 7 6 4 4 5 6 11 9 8 9 9 9 9 8 10 11 9 10 10 10 11 10 10 9 10 11 11 9 8 8 9 9 9 9
3 9 3 5 5 4 4 4 3 2 4 3 3 3 3 3 3 6 6 9 6 5 5 5 7 6 11 12 10 12 13 15 13 11 12 12 10 9 9 8 9 10 9 9 9 9 9 7 8 9 9 9 9 8
3 5 4 6 5 6 3 1 3 3 3 3 2 3 3 3 3 3 5 6 4 5 7 7 9 11 12 12 13 14 13 14 10 10 10 10 10 9 9 9 8 9 9 8 7 8 8 9 9 9 8 8 8 7
9 7 7 6 8 4 2 5 3 4 4 3 3 3 3 4 2 5 4 3 5 7 8 10 7 7 9 12 11 9 8 9 10 10 8 9 10 9 9 9 8 8 8 7 7 7 7 6 7 7 7 8 7 7
10 10 7 8 6 6 7 5 5 4 4 5 4 3 3 3 4 4 4 4 6 7 6 7 8 8 7 8 8 9 10 7 9 11 8 8 9 9 9 8 8 7 5 7 7 8 6 6 6 6 6 7 9 7
11 7 7 6 6 5 4 5 6 7 5 5 5 4 4 5 6 5 3 3 4 5 5 5 5 6 8 7 6 7 7 6 8 10 8 6 6 6 8 8 7 5 4 5 7 8 7 6 8 9 7 7 8 8
9 6 4 6 4 4 5 4 5 5 5 6 4 6 5 6 4 3 2 3 2 3 4 4 5 6 6 6 7 7 8 9 9 8 7 8 8 7 5 6 6 2 3 6 6 7 8 7 7 7 6 3 3 5
3 5 6 7 6 6 5 5 5 6 4 5 3 7 4 3 2 2 2 2 4 5 6 7 7 7 7 6 6 7 7 8 9 10 10 10 8 7 7 6 6 10 6 5 6 6 6 6 6 6 6 5 3 2
4 2 5 7 6 7 7 4 3 3 4 2 4 3 3 4 3 2 1 2 4 5 6 6 6 6 6 7 7 6 4 1 4 9 10 5 3 4 3 4 5 4 4 5 9 8 8 6 6 6 6 5 3 2
3 2 6 5 6 5 4 2 2 4 3 2 4 6 4 4 5 5 6 6 5 5 5 5 5 5 4 4 5 8 7 6 4 4 5 4 2 1 3 4 3 3 3 5 4 4 7 6 5 4 4 4 3 3
3 5 6 5 4 2 2 2 3 6 5 6 4 5 2 2 3 6 7 4 5 5 6 6 6 5 4 4 3 4 5 6 7 9 8 5 4 4 4 3 2 3 4 4 4 4 3 3 3 4 5 4 3 4
4 4 5 5 0 4 2 1 3 3 0 3 1 2 3 4 4 4 5 3 4 5 5 4 5 5 4 5 6 6 8 4 4 4 6 4 3 3 3 3 3 4 4 4 4 4 4 5 4 4 5 4 3 2
4 4 4 5 4 1 4 3 3 2 3 3 2 2 1 4 3 3 3 5 3 4 4 4 4 3 5 5 5 5 5 4 6 8 7 7 6 6 3 3 3 4 5 4 3 4 5 5 3 3 3 4 3 2
Wind_Direction
278 274 270 266 262 258 253 248 243 238 233 226 221 216 213 209 204 192 185 179 173 165 255 221 208 174 185 209 221 246 129 283 109 184 182 211 197 194 182 167 142 306 148 181 115 156 256 244 302 152 217 308 262 301
287 280 274 269 264 258 252 246 241 236 230 222 217 214 210 206 201 192 203 169 170 180 260 297 244 209 199 184 182 211 207 173 189 141 201 163 279 98 142 237 195 190 203 183 182 206 219 201 220 132 238 248 27 22
285 281 276 271 264 259 253 251 239 233 227 217 210 210 205 201 197 193 179 154 152 181 285 253 254 221 207 155 154 161 279 207 188 184 174 203 223 148 201 216 242 250 163 212 128 240 233 225 240 189 209 194 267 48
292 288 286 284 276 270 261 241 232 226 227 219 202 203 200 196 191 190 176 166 152 120 237 256 208 208 170 148 143 153 197 293 144 138 159 178 192 232 224 230 217 216 145 211 243 286 308 297 215 223 253 237 192 91
297 296 292 290 284 277 266 246 230 218 211 207 186 187 190 187 183 179 160 174 176 167 185 219 177 238 185 192 124 34 235 220 161 101 112 194 265 343 263 32 234 200 195 166 220 231 208 233 258 258 244 284 303 144
306 310 313 317 313 317 302 249 199 177 169 161 162 173 178 175 167 152 139 193 192 207 296 180 175 152 159 170 157 286 227 176 99 147 204 233 238 111 293 253 246 218 225 207 239 268 222 138 243 345 120 84 41 31
333 351 352 355 39 42 62 94 117 133 148 151 155 158 162 159 153 162 170 155 177 176 156 202 92 24 171 138 131 221 172 164 137 160 173 175 213 170 179 265 267 299 330 293 255 143 128 171 149 35 87 81 75 66
32 37 37 39 67 87 84 88 117 129 133 142 143 145 154 144 108 283 330 159 150 162 265 188 125 100 27 161 145 183 120 61 63 175 84 162 157 190 227 237 239 269 274 248 243 266 124 111 83 68 70 85 73 67
55 57 48 62 69 85 105 106 112 119 120 124 125 117 104 76 122 133 116 129 91 112 211 169 121 147 88 75 107 40 96 71 331 175 213 135 207 227 170 263 298 247 252 201 135 111 105 102 96 71 77 72 82 75
48 41 43 59 76 78 94 95 104 103 103 101 87 66 92 171 114 101 42 88 96 278 330 97 66 108 92 64 61 96 53 197 185 221 163 179 245 239 165 47 6 340 357 155 116 112 113 93 86 79 78 80 88 91
43 47 55 57 66 75 84 94 101 113 111 65 76 62 93 74 68 68 112 110 151 176 116 148 103 118 164 128 127 138 162 216 211 233 177 212 240 48 111 97 40 355 34 55 76 80 80 100 108 102 90 86 91 93
44 46 50 46 52 55 55 62 92 83 50 94 111 94 80 82 98 101 95 153 94 157 188 125 156 131 151 117 106 169 179 194 245 172 155 200 113 89 88 97 75 56 65 66 73 85 85 87 93 99 97 95 93 95
50 47 40 24 25 24 44 61 90 103 87 70 53 62 36 327 45 91 127 12 37 162 179 144 106 114 99 81 100 137 198 233 149 202 211 49 90 85 95 97 87 79 82 69 80 83 85 88 85 91 97 93 94 91
59 43 42 27 15 1 20 4 333 105 76 62 67 53 52 21 42 20 20 65 27 5 101 110 110 119 119 121 147 189 234 225 202 183 193 126 114 95 117 89 87 85 80 88 87 93 90 90 87 82 84 92 95 91
25 49 35 18 12 354 347 10 40 53 52 50 36 49 51 47 22 354 322 55 3 314 35 88 76 97 120 155 191 225 238 143 50 119 68 100 117 124 100 92 96 96 95 98 94 93 95 94 93 90 86 90 91 93
37 55 9 349 346 355 9 68 34 60 59 61 39 27 349 37 9 13 9 11 352 333 291 71 136 176 192 194 85 29 349 25 30 40 66 90 104 96 95 96 95 95 93 94 92 93 94 94 94 92 86 80 80 82
62 35 329 344 349 357 15 78 50 47 65 53 28 353 5 101 44 355 337 328 315 318 41 36 48 5 314 72 59 28 18 44 72 83 84 87 92 94 96 97 97 96 95 94 96 94 95 97 94 89 87 83 84 82
44 311 349 357 357 25 28 40 70 69 65 39 79 347 55 30 359 359 333 324 331 8 42 48 14 28 27 24 33 74 94 88 84 92 94 94 97 98 100 102 98 96 95 94 93 93 94 93 90 88 92 92 89 83
23 12 4 2 45 77 58 26 63 83 49 56 34 32 52 47 18 352 344 350 22 31 73 51 48 26 351 356 84 76 70 85 93 82 76 77 83 87 88 87 84 84 84 85 86 82 81 82 87 91 92 92 90 89
11 15 356 6 36 73 63 31 58 83 80 111 72 49 51 19 342 358 23 16 26 51 47 45 10 304 283 80 85 86 86 94 97 95 83 74 73 77 75 82 82 87 86 85 78 79 81 76 67 73 85 87 91 87
14 341 352 21 39 58 75 56 59 92 120 90 154 138 101 55 39 30 27 3 46 40 54 12 347 8 56 63 69 73 70 75 82 87 98 92 78 79 77 74 78 79 81 80 83 78 74 79 85 84 85 86 85 85
337 345 24 21 70 70 77 27 90 93 83 121 95 67 77 53 21 14 17 31 51 27 20 8 15 37 57 54 67 74 87 83 80 79 77 84 84 78 75 75 82 78 74 81 88 91 90 89 89 88 90 91 87 88
358 14 38 17 70 53 61 345 75 37 80 85 70 71 57 61 47 33 59 18 21 11 26 29 33 45 64 62 65 59 67 82 78 77 79 79 77 76 77 75 78 91 92 79 83 91 94 92 89 96 97 98 99 91
26 45 22 34 22 43 42 36 36 48 38 49 55 69 74 91 93 65 64 30 354 7 24 26 26 49 51 52 54 54 59 79 84 76 73 87 85 77 76 78 76 75 80 88 83 84 85 87 93 98 101 101 98 102
63 359 45 6 358 24 30 32 15 37 60 29 55 18 57 102 78 69 54 17 0 11 23 29 39 38 63 66 54 48 39 65 86 86 68 75 89 87 79 73 70 70 83 93 92 96 90 87 90 99 103 109 110 104
71 4 46 13 355 40 20 39 18 14 15 39 27 6 48 63 60 51 58 12 5 360 17 32 52 65 51 39 56 46 39 50 73 69 46 65 80 96 106 107 103 64 46 105 113 110 104 99 100 96 89 93 110 116
55 357 17 22 354 15 50 40 28 51 35 20 349 11 51 69 72 75 95 8 13 23 34 53 69 74 76 69 62 59 58 57 63 73 72 62 56 51 71 96 89 58 62 89 105 121 117 109 103 104 111 72 102 128
71 49 54 326 44 17 76 44 35 23 6 338 36 31 81 88 63 34 58 50 50 55 58 57 58 64 70 74 76 81 79 84 87 87 79 63 55 54 57 62 69 73 68 72 89 88 111 121 128 129 118 120 125 150
54 5 68 21 34 35 32 51 9 347 331 339 94 75 68 29 4 74 91 72 63 65 66 67 64 67 65 59 51 42 24 39 93 97 88 90 69 44 24 56 67 59 62 78 92 107 115 126 137 133 141 139 156 109
352 63 82 49 62 47 329 69 329 304 353 87 89 93 64 36 16 27 52 55 60 61 65 73 69 66 65 67 66 53 34 31 47 111 122 127 133 141 66 75 71 63 70 77 69 47 55 60 64 48 65 65 63 73
85 59 65 57 84 309 212 203 58 52 37 50 24 85 105 118 23 35 28 39 64 65 70 63 54 42 61 61 66 78 66 21 38 65 81 92 94 83 72 73 91 93 92 93 82 83 93 68 95 104 95 101 99 125
39 87 115 95 219 275 24 34 96 109 345 61 336 62 18 53 46 346 349 10 70 70 63 74 84 71 58 66 65 67 79 78 59 60 71 74 60 55 67 66 68 83 88 92 92 93 89 108 107 117 135 155 169 150
51 48 57 82 47 73 271 103 43 86 47 53 337 130 80 120 138 248 350 27 76 104 98 87 79 80 91 90 99 95 84 81 86 81 77 76 80 78 62 52 70 71 86 100 103 105 112 110 106 111 135 164 152 119